, FL

(GMT )
Crestview

Weather History for KEGI - January, 2014

Change the Weather History Date:

Thursday, January 9, 2014

  Actual Average Record
Temperature  
Mean Temperature 44 °F -  
Max Temperature 48 °F - - ()
Min Temperature 40 °F - - ()
Degree Days  
Heating Degree Days 21    
Moisture  
Dew Point 38 °F    
Average Humidity 79    
Maximum Humidity 100    
Minimum Humidity 31    
Precipitation  
Precipitation 0.14 in - - ()
Sea Level Pressure  
Sea Level Pressure 30.32 in    
Wind  
Wind Speed 4 mph (NE)    
Max Wind Speed 8 mph    
Max Gust Speed -    
Visibility 4 miles    
Events Rain    
Averages and records for this station are not official NWS values.
T = Trace of Precipitation, MM = Missing Value Source: NWS Daily Summary

Daily Weather History Graph

Daily Weather History Graph

Search for Another Location

Airport or City:

Trip Planner

Search our weather history database for the weather conditions in past years. The results will help you decide how hot, cold, wet, or windy it might be!

Date:

Astronomy

Jan. 09, 2014 Rise Set
Actual Time 6:44 AM CST 5:02 PM CST
Civil Twilight 6:18 AM CST 5:28 PM CST
Nautical Twilight 5:48 AM CST 5:58 PM CST
Astronomical Twilight 5:19 AM CST 6:27 PM CST
Moon 12:20 PM CST (1/9) 1:01 AM CST (1/9)
Length of Visible Light 11h 10m
Length of Day
10h 17m
Waxing Gibbous, 66% of the Moon is Illuminated
Jan 9
Waxing Gibbous
Jan 15
Full
Jan 23
Last Quarter
Jan 30
New
Feb 6
First Quarter

Hourly Weather History & Observations

Time (CST) Temp. Windchill Dew Point Humidity Pressure Visibility Wind Dir Wind Speed Gust Speed Precip Events Conditions
12:58 AM 42.3 °F 39.4 °F 13.6 °F 31% 30.36 in 10.0 mi ENE 4.6 mph - N/A   Overcast
1:58 AM 40.6 °F - 15.8 °F 37% 30.36 in 10.0 mi ENE 2.3 mph - N/A   Scattered Clouds
2:58 AM 40.6 °F - 16.7 °F 38% 30.36 in 10.0 mi NE 2.3 mph - N/A   Mostly Cloudy
3:58 AM 40.5 °F - 17.8 °F 40% 30.35 in 10.0 mi NE 2.3 mph - N/A   Mostly Cloudy
4:58 AM 41.5 °F - 20.5 °F 43% 30.35 in 10.0 mi NNE 2.3 mph - N/A   Overcast
5:58 AM 42.6 °F - 22.8 °F 46% 30.36 in 10.0 mi NE 2.3 mph - N/A   Overcast
6:58 AM 42.6 °F - 23.9 °F 48% 30.37 in 10.0 mi NE 2.3 mph - N/A   Overcast
7:08 AM 42.8 °F - 24.8 °F 49% 30.36 in 10.0 mi NE 2.3 mph - N/A   Overcast
7:48 AM 44.6 °F - 24.8 °F 46% 30.37 in 10.0 mi ENE 2.3 mph - N/A   Mostly Cloudy
7:58 AM 44.2 °F 41.0 °F 25.7 °F 48% 30.38 in 10.0 mi East 5.8 mph - N/A   Overcast
8:03 AM 44.6 °F 40.7 °F 26.6 °F 49% 30.38 in 10.0 mi East 6.9 mph - N/A   Overcast
8:08 AM 44.6 °F 40.2 °F 28.4 °F 53% 30.37 in 10.0 mi ENE 8.1 mph - N/A   Overcast
8:31 AM 42.8 °F 41.1 °F 32.0 °F 66% 30.38 in 10.0 mi ENE 3.5 mph - N/A   Light Drizzle
8:55 AM 43.5 °F 40.9 °F 33.8 °F 69% 30.38 in 6.0 mi NE 4.6 mph - 0.00 in   Light Drizzle
9:20 AM 44.6 °F 41.4 °F 33.8 °F 66% 30.39 in 1.0 mi NNE 5.8 mph - N/A   Light Drizzle
9:55 AM 42.1 °F 38.4 °F 38.5 °F 87% 30.40 in 1.0 mi NNE 5.8 mph - 0.00 in   Light Drizzle
10:57 AM 43.7 °F 40.3 °F 42.1 °F 94% 30.37 in 1.0 mi NE 5.8 mph - 0.00 in   Light Drizzle
11:55 AM 46.0 °F 43.1 °F 45.3 °F 97% 30.32 in 1.0 mi North 5.8 mph - 0.01 in   Light Drizzle
12:35 PM 46.4 °F 45.2 °F 46.4 °F 100% 30.29 in 1.0 mi NNE 3.5 mph - N/A Rain Light Rain
12:57 PM 47.5 °F - 47.3 °F 99% 30.30 in 1.0 mi North 5.8 mph - 0.02 in   Light Drizzle
1:56 PM 48.0 °F - 47.8 °F 99% 30.29 in 1.0 mi North 5.8 mph - 0.04 in Rain Light Rain
2:56 PM 48.0 °F - 47.8 °F 99% 30.28 in 0.8 mi North 6.9 mph - 0.02 in   Light Drizzle
3:53 PM 48.0 °F - 47.8 °F 99% 30.29 in 0.8 mi North 5.8 mph - 0.01 in   Light Drizzle
4:19 PM 48.2 °F - 46.4 °F 93% 30.28 in 0.8 mi North 8.1 mph - N/A   Light Drizzle
5:55 PM 47.5 °F - 47.3 °F 99% 30.29 in 0.8 mi NNE 5.8 mph - 0.01 in   Light Drizzle
6:12 PM 48.2 °F - 48.2 °F 100% 30.29 in 0.8 mi NNE 4.6 mph - N/A   Light Drizzle
6:28 PM 48.2 °F - 48.2 °F 100% 30.29 in 0.8 mi NNE 3.5 mph - N/A   Light Drizzle
6:55 PM 47.8 °F - 47.7 °F 99% 30.31 in 0.8 mi North 4.6 mph - 0.01 in   Light Drizzle
7:55 PM 48.2 °F - 48.0 °F 99% 30.33 in 0.8 mi NNE 5.8 mph - 0.01 in   Light Drizzle
8:36 PM 48.2 °F - 48.2 °F 100% 30.30 in 1.0 mi NNE 5.8 mph - N/A   Light Drizzle
8:55 PM 48.2 °F - 48.0 °F 99% 30.31 in 1.0 mi NNE 4.6 mph - 0.01 in   Light Drizzle
9:55 PM 48.2 °F - 48.0 °F 99% 30.30 in 1.0 mi NNE 4.6 mph - 0.00 in   Light Drizzle
9:59 PM 48.2 °F - 48.0 °F 99% 30.30 in 1.0 mi NNE 4.6 mph - 0.00 in   Light Drizzle
10:41 PM 48.2 °F - 48.2 °F 100% 30.27 in 1.0 mi NNE 5.8 mph - N/A   Light Drizzle
10:55 PM 48.2 °F - 48.0 °F 99% 30.28 in 0.8 mi NNE 4.6 mph - 0.00 in   Light Drizzle
11:26 PM 48.2 °F - 48.2 °F 100% 30.24 in 0.8 mi NNE 3.5 mph - N/A   Light Drizzle
11:55 PM 48.4 °F - 48.2 °F 99% 30.24 in 0.8 mi NE 4.6 mph - 0.00 in   Light Drizzle
11:56 PM 48.2 °F - 48.2 °F 100% 30.24 in 5.0 mi NE 4.6 mph - N/A   Overcast